Voltar ao catálogo

CXBN

AtivoCiênciaVLEO
NORAD 38762·PAYLOAD·🇺🇸 United States

Lançado Sep 13, 2012 de Vandenberg Space Force Base

Loading…

Próximas Passagens (próximas 24 horas)

TLE

AtualizadoSource: Space-Track

Época: Sep 14, 2026, 14:15 UTC

1 38762U 12048E   26257.59395004  .00005707  00000-0  23108-3 0  9994
2 38762  64.6590 248.2359 0075015 140.4590 220.2044 15.23171848131898

Acompanhe CXBN em tempo real com AllMySat

Download on the App Store